CAPE
0 0 0 0 0 0 0 0 0 0 0 0 0 0 0 0 0 0 0 0 0 0 0 0 0 0 0 0 16 151 223 318 225 381 383 566 498 773 958 1069 917 826 778 687
0 0 0 0 0 0 0 0 0 0 0 0 0 0 0 0 0 0 0 0 0 0 0 0 0 0 0 0 0 0 0 34 117 148 277 346 595 826 925 1140 1244 1250 1298 1307
0 0 0 0 0 0 0 0 0 0 0 0 0 0 0 0 0 0 0 0 0 0 0 0 0 0 0 0 0 0 0 0 5 111 282 332 455 514 778 854 675 723 619 947
0 0 0 0 0 0 0 0 0 0 0 0 0 0 0 0 0 0 0 0 0 0 0 0 0 0 0 0 0 0 0 0 0 99 350 454 392 362 375 465 477 484 430 567
0 0 0 0 0 0 0 0 0 0 0 0 0 0 0 0 0 0 0 0 0 0 0 0 0 0 0 0 0 0 0 0 0 59 441 468 483 278 286 118 149 173 171 355
0 0 0 0 0 0 0 0 0 0 0 0 0 0 0 0 0 0 0 0 0 0 0 0 0 0 0 0 0 0 0 0 0 6 43 355 386 224 175 16 27 0 0 51
0 0 0 0 0 0 0 0 0 0 0 0 0 0 0 0 0 0 0 0 0 0 0 0 0 0 0 0 0 0 0 0 0 1 60 122 180 126 68 39 0 0 0 44
0 0 0 0 0 0 0 0 0 0 0 0 0 0 0 0 0 0 0 0 0 0 0 0 0 0 0 0 0 0 0 0 0 0 30 68 64 88 19 6 0 0 1 58
0 0 0 0 0 0 0 0 0 0 0 0 0 0 0 0 0 0 0 0 0 0 0 0 0 0 0 0 0 0 0 0 0 0 16 15 46 15 0 0 0 0 76 279
0 0 0 0 0 0 0 0 0 0 0 0 0 0 0 0 0 0 0 0 0 0 0 0 0 0 0 0 0 0 0 0 0 0 0 0 0 0 0 11 32 122 210 641
0 0 0 0 0 0 0 0 0 0 0 0 0 0 0 0 1 0 0 0 0 0 0 0 0 0 0 0 0 0 0 122 0 0 0 0 0 0 11 62 160 291 464 935
0 0 0 0 0 0 0 0 0 0 0 0 7 0 0 0 0 0 0 0 0 0 0 0 0 0 0 0 0 0 0 147 79 0 0 0 0 0 50 151 293 492 640 1099
0 0 0 0 0 0 0 0 0 0 0 0 0 0 0 0 0 0 0 0 0 0 0 0 0 0 0 0 0 0 0 336 425 5 0 1 17 188 358 479 620 699 891 1073
27 0 0 0 0 0 0 0 0 0 0 0 0 0 0 0 0 0 0 0 0 0 0 0 0 0 23 15 8 0 0 707 946 330 206 356 599 517 578 733 842 792 937 1141
28 1 0 0 0 0 0 0 0 0 0 7 0 0 0 0 0 0 0 0 0 54 35 2 0 0 179 92 7 0 0 414 1391 787 884 681 894 989 901 931 930 1083 1143 906
0 0 0 0 0 0 0 0 0 0 0 0 1 0 0 0 0 0 0 0 0 0 0 0 0 0 79 155 55 2 0 27 1688 975 894 1190 1236 1250 1272 1192 1339 1109 977 873
0 0 0 0 0 0 0 0 0 0 0 0 0 0 0 0 0 0 0 0 0 0 0 0 0 0 0 140 115 39 0 20 1454 1384 1143 1181 1051 1177 1161 1114 907 826 722 585
0 0 1 0 0 0 0 0 0 0 0 0 0 0 0 0 0 0 0 0 0 0 0 0 0 0 0 0 98 19 1 131 1161 1155 985 792 902 817 721 735 617 424 269 121
0 0 0 0 0 0 0 0 0 0 0 0 0 0 0 0 0 0 0 0 0 0 0 0 0 0 0 0 22 6 15 7 872 893 778 669 615 564 515 498 248 63 0 0
0 0 0 0 0 0 0 0 0 1 0 0 0 0 4 0 2 0 0 0 0 0 0 0 0 0 0 0 2 3 0 16 736 717 615 446 362 254 153 57 23 0 0 0
0 2 0 0 0 0 0 0 0 0 0 0 1 5 0 0 0 0 0 0 0 0 0 0 0 0 0 0 3 0 0 13 434 365 285 160 143 97 34 2 0 0 0 0
0 2 1 0 0 0 0 1 0 2 1 8 1 0 4 4 6 1 3 2 0 0 0 0 0 0 0 3 5 0 0 0 0 83 172 103 55 25 6 2 0 4 0 0
0 5 2 0 0 0 0 1 1 21 1 0 0 0 3 9 1 3 0 0 0 0 0 0 0 0 0 26 0 0 0 0 0 8 59 38 16 11 6 22 10 4 0 0
0 0 0 0 0 0 0 0 6 0 0 0 0 2 5 7 7 2 0 1 0 0 0 0 1 1 39 2 0 0 0 15 26 8 16 8 0 5 19 8 3 3 0 0
0 0 0 0 1 1 5 12 0 0 0 0 4 6 12 4 2 2 1 1 0 0 0 0 4 31 37 0 23 4 3 25 64 44 21 6 11 10 2 2 5 2 0 0
0 0 5 2 0 5 12 1 0 0 4 6 4 1 1 3 1 2 1 1 1 0 0 2 20 84 9 74 73 65 29 111 121 41 8 10 4 1 0 0 0 0 0 0
CIN
-0 -0 -0 -0 -0 -0 -0 -0 -0 -0 -0 -0 -0 -0 -0 -0 -0 -0 -0 -0 -0 -0 -0 -0 -0 -0 -0 -0 -160 -136 -153 -161 -270 -227 -230 -262 -226 -319 -332 -390 -447 -468 -458 -454
-0 -0 -0 -0 -0 -0 -0 -0 -0 -0 -0 -0 -0 -0 -0 -0 -0 -0 -0 -0 -0 -0 -0 -0 -0 -0 -0 -0 -0 -0 -0 -118 -205 -258 -190 -189 -199 -268 -290 -357 -430 -401 -326 -298
-0 -0 -0 -0 -0 -0 -0 -0 -0 -0 -0 -0 -0 -0 -0 -0 -0 -0 -0 -0 -0 -0 -0 -0 -0 -0 -0 -0 -0 -0 -0 -0 -164 -216 -286 -301 -340 -384 -305 -311 -300 -289 -287 -278
-0 -0 -0 -0 -0 -0 -0 -0 -0 -0 -0 -0 -0 -0 -0 -0 -0 -0 -0 -0 -0 -0 -0 -0 -0 -0 -0 -0 -0 -0 -0 -0 -0 -204 -192 -175 -113 -119 -191 -176 -176 -176 -252 -249
-0 -0 -0 -0 -0 -0 -0 -0 -0 -0 -0 -0 -0 -0 -0 -0 -0 -0 -0 -0 -0 -0 -0 -0 -0 -0 -0 -0 -0 -0 -0 -0 -0 -267 -183 -149 -139 -227 -245 -218 -202 -230 -272 -292
-0 -0 -0 -0 -0 -0 -0 -0 -0 -0 -0 -0 -0 -0 -0 -0 -0 -0 -0 -0 -0 -0 -0 -0 -0 -0 -0 -0 -0 -0 -0 -0 -0 -388 -249 -205 -179 -234 -222 -241 -229 -0 -0 -371
-0 -0 -0 -0 -0 -0 -0 -0 -0 -0 -0 -0 -0 -0 -0 -0 -0 -0 -0 -0 -0 -0 -0 -0 -0 -0 -0 -0 -0 -0 -0 -0 -0 -28 -348 -302 -249 -248 -209 -196 -5 -0 -0 -351
-0 -0 -0 -0 -0 -0 -0 -0 -0 -0 -0 -0 -0 -0 -0 -0 -0 -0 -0 -0 -0 -0 -0 -0 -0 -0 -0 -0 -0 -0 -0 -0 -0 -0 -306 -320 -321 -302 -290 -280 -0 -0 -320 -282
-0 -0 -0 -0 -0 -0 -0 -0 -0 -0 -0 -0 -0 -0 -0 -0 -0 -0 -0 -0 -0 -0 -0 -0 -0 -0 -0 -0 -0 -0 -0 -0 -0 -0 -283 -339 -329 -297 -0 -0 -0 -46 -278 -214
-0 -0 -0 -0 -0 -0 -0 -0 -0 -0 -0 -0 -0 -0 -0 -0 -0 -0 -0 -0 -0 -0 -0 -0 -0 -0 -0 -0 -0 -0 -0 -0 -0 -0 -0 -0 -0 -0 -0 -160 -332 -301 -254 -174
-0 -0 -0 -0 -0 -0 -0 -0 -0 -0 -0 -0 -0 -0 -0 -0 -31 -0 -0 -0 -0 -0 -0 -0 -0 -0 -0 -0 -0 -0 -0 -390 -0 -0 -0 -0 -0 -0 -401 -361 -306 -265 -220 -151
-0 -0 -0 -0 -0 -0 -0 -0 -0 -0 -0 -0 -5 -0 -0 -0 -0 -0 -0 -0 -0 -0 -0 -0 -0 -0 -0 -0 -0 -0 -0 -402 -446 -0 -0 -0 -0 -0 -328 -316 -301 -255 -170 -128
-0 -0 -0 -0 -0 -0 -0 -0 -0 -0 -0 -0 -0 -0 -0 -0 -0 -0 -0 -0 -0 -0 -0 -0 -0 -0 -0 -0 -0 -0 -0 -310 -326 -100 -0 -90 -320 -317 -276 -267 -245 -195 -144 -102
-12 -12 -0 -0 -0 -0 -0 -0 -0 -0 -3 -0 -0 -0 -0 -0 -0 -0 -0 -0 -0 -0 -0 -0 -0 -0 -80 -176 -245 -0 -0 -278 -271 -322 -351 -271 -243 -232 -249 -237 -197 -166 -126 -83
-13 -1 -0 -0 -0 -0 -0 -0 -0 -0 -0 -1 -0 -0 -0 -0 -0 -26 -0 -0 -0 -81 -100 -55 -0 -0 -105 -176 -292 -0 -0 -317 -201 -231 -208 -183 -223 -208 -211 -184 -144 -100 -77 -98
-0 -0 -0 -0 -0 -0 -0 -0 -0 -0 -0 -0 -11 -0 -0 -0 -0 -0 -0 -0 -0 -0 -0 -1 -0 -0 -151 -147 -240 -383 -0 -168 -73 -155 -165 -160 -154 -154 -122 -99 -81 -79 -71 -76
-0 -0 -0 -0 -0 -0 -0 -0 -0 -0 -0 -0 -0 -0 -0 -0 -0 -0 -0 -0 -0 -0 -0 -0 -0 -0 -0 -130 -191 -317 -0 -230 -62 -59 -86 -110 -124 -109 -85 -97 -91 -89 -106 -106
-0 -0 -0 -0 -0 -0 -0 -0 -0 -0 -0 -0 -0 -0 -0 -0 -0 -0 -0 -0 -0 -0 -0 -0 -0 -0 -0 -0 -168 -307 -194 -241 -55 -51 -94 -101 -106 -129 -152 -130 -133 -160 -179 -192
-0 -0 -0 -0 -0 -0 -0 -0 -0 -0 -0 -0 -0 -0 -0 -0 -0 -0 -0 -0 -0 -0 -0 -0 -0 -0 -0 -0 -155 -266 -245 -47 -33 -70 -95 -100 -124 -144 -162 -133 -205 -264 -0 -0
-0 -0 -0 -0 -0 -0 -0 -0 -0 -0 -0 -0 -0 -7 -10 -0 -0 -0 -0 -0 -0 -0 -0 -0 -0 -0 -0 -0 -32 -0 -0 -81 -36 -95 -85 -140 -148 -201 -218 -251 -248 -0 -0 -0
-0 -2 -2 -0 -0 -0 -0 -0 -0 -0 -0 -1 -8 -8 -0 -0 -0 -0 -0 -0 -0 -0 -0 -0 -0 -0 -0 -0 -25 -0 -0 -88 -25 -71 -119 -160 -186 -223 -221 -49 -0 -0 -0 -0
-0 -3 -4 -0 -0 -0 -0 -17 -0 -1 -0 -3 -0 -0 -0 -0 -1 -7 -4 -3 -0 -0 -0 -0 -0 -0 -0 -15 -20 -0 -0 -0 -0 -42 -110 -149 -190 -195 -159 -74 -0 -61 -19 -0
-0 -10 -5 -0 -0 -0 -5 -6 -11 -3 -7 -0 -0 -0 -0 -0 -4 -5 -10 -0 -0 -0 -0 -0 -0 -0 -0 -68 -0 -0 -0 -0 -0 -113 -126 -170 -157 -165 -51 -51 -75 -76 -5 -0
-0 -0 -0 -1 -0 -0 -0 -0 -11 -1 -0 -0 -0 -0 -0 -0 -4 -0 -0 -0 -0 -0 -0 -0 -0 -16 -1 -15 -0 -0 -0 -66 -62 -105 -164 -153 -0 -58 -51 -57 -72 -76 -0 -0
-0 -0 -0 -0 -3 -0 -1 -5 -0 -0 -0 -0 -1 -0 -0 -0 -0 -0 -0 -0 -0 -0 -0 -0 -17 -21 -5 -0 -11 -20 -67 -32 -70 -85 -125 -73 -70 -55 -95 -57 -43 -64 -0 -0
-0 -0 -0 -0 -0 -2 -1 -7 -0 -0 -0 -0 -2 -0 -0 -0 -0 -0 -0 -0 -0 -0 -0 -0 -73 -5 -9 -12 -21 -33 -40 -64 -66 -108 -74 -72 -93 -31 -0 -0 -0 -0 -0 -0
Wind_Speed
19 20 22 26 24 27 29 28 28 29 29 35 39 47 43 39 39 40 41 42 44 43 43 42 42 38 38 35 36 33 32 31 31 31 31 32 32 28 26 21 18 17 16 16
20 21 18 21 21 23 24 26 30 29 33 38 43 54 47 42 40 39 41 41 41 44 45 43 43 40 38 41 39 38 37 36 36 37 35 31 29 29 26 24 22 18 17 19
20 21 23 21 21 24 25 27 31 35 37 38 43 56 49 40 41 44 40 39 42 45 47 46 45 46 45 42 42 42 44 39 36 35 35 32 31 30 28 28 24 22 20 21
17 15 17 22 23 23 28 25 30 36 38 43 33 58 45 44 43 39 44 48 49 48 46 45 44 44 45 45 42 42 42 42 39 31 34 34 32 31 30 28 26 25 23 23
20 21 23 26 21 20 25 25 30 33 37 38 35 43 42 49 48 44 42 39 39 42 44 47 46 46 47 45 46 45 43 41 41 35 34 34 35 33 31 28 27 28 26 25
23 19 20 19 20 21 22 27 32 30 34 39 36 36 45 33 35 43 44 41 40 42 43 44 45 46 47 46 45 46 45 46 41 39 35 34 33 28 26 28 27 26 28 28
22 21 18 18 22 23 25 31 38 36 37 41 34 42 48 51 45 37 37 35 36 40 42 44 45 47 48 47 47 46 44 45 41 37 36 32 30 27 25 23 25 26 28 29
22 24 19 18 23 25 28 27 32 43 45 52 41 43 42 37 35 34 34 36 37 40 42 43 45 46 47 48 48 47 47 46 38 33 32 29 27 26 28 27 28 29 28 24
25 25 20 23 22 24 25 29 26 36 37 45 41 43 45 40 35 33 36 36 39 41 44 45 46 46 46 46 48 47 47 47 43 34 30 28 26 27 27 28 29 29 25 21
21 32 25 23 21 24 22 22 29 28 40 44 41 41 41 37 37 35 40 41 42 44 45 47 47 45 44 43 45 46 45 46 46 40 33 30 27 27 29 29 28 25 21 18
24 25 27 23 23 24 23 23 23 25 27 38 46 42 26 30 39 41 42 43 43 44 45 46 45 42 40 40 41 43 44 44 44 41 36 33 34 33 29 29 25 21 18 14
20 24 28 25 25 18 15 18 19 25 29 27 35 47 34 40 37 41 45 45 44 41 41 43 42 38 39 39 38 40 40 41 42 40 38 34 32 30 27 24 20 15 13 12
19 21 28 25 17 17 18 16 18 20 20 18 30 30 21 35 44 43 41 42 40 38 42 40 39 37 39 36 34 36 37 38 35 34 31 27 23 19 17 17 15 12 12 11
18 19 19 22 22 25 35 13 16 15 16 16 17 33 45 46 43 40 40 39 38 36 38 38 37 37 36 29 29 32 34 36 33 27 25 22 19 17 15 16 14 13 11 9
13 20 19 19 36 36 21 17 11 12 14 14 18 20 43 44 39 37 36 39 39 37 36 37 38 36 34 29 29 32 32 31 29 27 25 20 20 18 16 14 12 10 8 8
19 22 20 34 36 23 22 11 9 11 9 10 12 19 38 32 37 40 41 44 43 39 38 37 38 36 33 30 29 31 32 30 30 26 25 21 18 16 14 11 9 9 8 8
15 17 25 34 26 32 29 3 6 13 12 16 12 11 21 39 40 43 45 46 43 39 38 38 36 34 32 32 32 32 33 33 34 28 24 21 18 15 12 11 10 9 9 9
5 17 24 30 30 26 18 19 17 16 13 12 15 15 25 27 41 45 42 38 37 41 39 36 34 35 34 34 36 37 34 34 37 30 25 21 17 13 12 11 10 9 9 7
10 13 23 25 23 34 32 18 16 19 16 15 14 22 32 41 44 37 28 31 40 39 37 34 31 34 35 33 33 34 36 34 37 30 23 20 16 14 12 10 10 9 8 4
12 8 16 26 31 32 25 20 18 21 19 19 24 33 45 45 40 39 36 42 40 38 38 35 34 34 32 32 32 30 31 31 36 28 23 21 19 14 11 10 9 6 4 3
15 17 15 30 34 31 25 18 23 23 27 24 40 46 46 43 41 44 41 38 36 36 35 33 31 32 33 33 32 31 27 24 32 30 24 21 16 11 11 9 7 6 4 3
16 19 27 26 26 32 17 23 31 28 27 31 49 45 46 43 41 40 36 36 35 33 32 32 32 31 29 32 30 30 31 25 26 30 23 19 13 11 10 9 7 6 5 3
16 20 31 30 26 28 21 28 28 26 31 40 36 42 36 38 36 35 33 31 32 31 28 29 32 30 29 25 30 32 31 31 25 35 22 15 13 10 9 8 7 6 5 4
9 15 32 32 26 24 31 36 31 32 37 37 32 35 33 34 32 31 31 29 28 28 27 27 26 28 26 21 22 28 36 28 34 28 18 13 10 9 9 6 8 6 6 5
7 22 26 27 18 32 28 32 44 32 38 42 30 32 31 29 29 29 30 29 27 27 27 26 24 23 21 24 31 39 45 38 29 20 15 14 10 9 8 7 6 7 9 10
10 8 9 22 16 22 29 35 39 20 32 31 29 31 28 27 27 28 27 26 27 25 26 26 20 20 17 22 32 39 39 28 24 17 14 14 9 8 7 6 4 6 4 3
Wind_Direction
301 291 285 283 285 285 285 286 286 288 292 289 281 274 279 283 281 281 279 278 276 276 276 276 277 278 276 275 270 263 264 262 258 255 258 267 270 273 274 268 265 273 283 283
298 290 299 298 296 293 290 289 290 291 297 293 287 274 279 282 282 283 282 280 280 278 277 278 279 279 276 273 270 267 264 264 258 259 261 267 270 272 271 272 276 281 282 288
302 295 296 305 305 298 297 295 295 294 297 296 292 277 280 282 282 282 281 281 281 279 278 277 279 277 274 275 273 272 265 264 263 259 259 264 270 275 275 276 281 281 285 287
319 325 316 308 305 305 295 307 304 301 300 290 302 276 285 286 284 283 282 281 280 279 281 279 278 278 277 273 273 273 270 264 262 258 253 255 259 262 271 276 280 284 286 288
310 310 310 309 313 316 307 315 309 307 300 298 296 287 281 290 287 288 287 287 284 283 282 279 278 276 275 277 273 274 273 268 262 260 256 254 258 265 272 277 280 284 290 291
311 318 316 315 320 319 321 314 312 310 304 292 298 290 285 293 299 296 291 289 287 285 284 282 280 277 274 274 275 274 274 270 267 261 258 255 254 255 260 271 276 283 290 293
312 314 318 320 314 320 321 314 303 300 299 293 303 294 283 289 295 302 298 296 292 289 287 285 283 280 275 273 273 273 274 272 269 263 258 254 251 251 250 253 272 282 288 296
305 303 313 322 315 313 314 314 305 296 296 295 302 291 291 299 298 302 302 298 297 294 292 289 286 282 277 273 271 271 271 270 270 265 258 254 250 254 261 266 276 281 288 294
303 302 315 317 320 319 316 311 317 305 305 299 299 297 297 296 292 294 303 302 298 297 294 291 290 283 279 275 271 270 269 266 264 263 258 255 256 259 263 271 277 282 287 292
311 300 312 316 321 321 318 325 314 316 305 299 302 298 295 296 295 295 299 300 300 301 298 294 292 282 280 278 274 270 268 264 259 259 258 255 256 263 270 275 278 281 282 282
314 307 309 317 318 317 317 319 320 319 313 306 301 297 307 298 297 298 296 300 301 302 302 299 295 284 280 280 276 270 267 264 258 257 257 259 262 266 270 274 277 276 274 268
319 311 305 313 321 324 325 326 328 319 316 316 310 300 296 280 287 296 290 295 300 299 305 305 299 287 280 280 277 271 266 263 258 256 257 258 261 264 268 269 272 270 261 261
319 314 310 317 336 343 335 339 336 326 320 295 311 267 301 300 290 292 290 293 295 307 310 307 298 290 281 281 279 273 266 262 259 255 255 253 254 255 258 264 267 261 257 248
314 309 305 305 316 317 297 306 321 315 313 301 284 258 265 281 286 294 304 301 305 312 320 307 296 292 273 284 279 277 270 262 257 253 250 245 247 250 256 264 266 254 245 224
310 302 307 307 285 275 250 253 307 300 273 274 268 258 264 276 296 305 310 311 309 314 307 304 285 288 276 279 277 277 270 261 252 248 244 246 250 254 260 262 253 235 202 199
307 303 311 280 267 242 246 266 281 271 284 273 269 258 278 305 300 299 301 297 293 287 301 298 281 287 281 273 272 275 265 258 246 242 242 248 246 252 253 238 211 192 188 176
316 312 302 280 308 300 282 326 8 357 357 347 324 283 338 306 302 295 292 288 281 299 285 287 280 277 276 269 272 274 261 252 239 240 246 245 245 239 226 208 193 189 174 165
264 308 290 288 307 311 338 347 352 346 347 348 331 333 334 332 307 295 286 286 293 286 282 276 269 276 279 278 274 269 256 247 235 240 241 242 232 213 199 192 186 174 171 166
177 309 296 296 313 295 315 342 349 347 346 343 348 344 325 305 291 282 266 311 288 276 271 260 259 273 274 262 272 267 245 245 231 232 232 225 209 185 181 178 174 175 162 169
344 334 317 303 294 300 327 343 353 350 335 357 347 332 307 301 281 276 281 287 280 273 275 264 263 266 267 260 272 258 240 242 224 222 216 208 195 182 178 172 162 185 172 188
348 329 322 295 286 306 328 350 349 341 341 346 329 293 297 278 271 273 276 270 269 267 265 261 258 262 269 262 266 247 235 232 216 213 206 198 195 184 167 170 171 182 175 167
338 329 306 302 300 298 353 342 333 332 328 333 317 287 282 275 274 273 269 269 267 263 261 266 261 270 263 265 256 237 224 213 218 205 196 196 188 181 175 163 183 167 153 142
353 327 293 295 311 321 333 331 331 329 332 331 289 283 274 276 272 270 268 260 262 259 252 256 271 262 268 268 242 231 214 212 212 194 194 187 189 180 178 166 167 159 159 136
25 252 290 303 326 330 328 328 335 334 331 333 280 276 273 270 266 263 262 257 254 254 248 251 258 274 269 263 227 204 199 203 189 190 187 180 178 184 181 171 146 148 141 122
246 335 324 326 336 328 338 335 329 332 332 294 276 272 272 268 264 262 263 257 250 248 251 254 257 254 241 222 220 197 186 185 185 188 190 194 186 177 184 203 212 136 127 121
26 13 321 283 340 336 336 337 339 296 283 282 277 280 271 264 261 263 256 252 252 242 250 255 234 213 190 172 168 172 178 183 189 193 196 199 188 180 159 147 192 246 236 244